Tekamah, NE

1:30 AM CDT on March 23, 2017 (GMT -0500)
Tekamah

Weather History for KTQE - March, 2013

Change the Weather History Date:

Monday, March 25, 2013

  Actual Average Record
Temperature  
Mean Temperature 28 °F -  
Max Temperature 32 °F 53 °F 83 °F (1967)
Min Temperature 23 °F 30 °F 6 °F (1955)
Degree Days  
Heating Degree Days 37    
Moisture  
Dew Point 21 °F    
Average Humidity 76    
Maximum Humidity 86    
Minimum Humidity 64    
Precipitation  
Precipitation 0.00 in - - ()
Sea Level Pressure  
Sea Level Pressure 30.22 in    
Wind  
Wind Speed 18 mph (NW)    
Max Wind Speed 24 mph    
Max Gust Speed 29 mph    
Visibility 5 miles    
Events Snow    
Averages and records for this station are not official NWS values.
T = Trace of Precipitation, MM = Missing Value Source: NWS Daily Summary

Daily Weather History Graph

Daily Weather History Graph

Search for Another Location

Airport or City:

Trip Planner

Search our weather history database for the weather conditions in past years. The results will help you decide how hot, cold, wet, or windy it might be!

Date:

Astronomy

Mar. 25, 2013 Rise Set
Actual Time 7:19 AM CDT 7:42 PM CDT
Civil Twilight 6:51 AM CDT 8:10 PM CDT
Nautical Twilight 6:18 AM CDT 8:43 PM CDT
Astronomical Twilight 5:44 AM CDT 9:17 PM CDT
Moon 6:14 PM CDT (3/25) 6:04 AM CDT (3/25)
Length of Visible Light 13h 19m
Length of Day
12h 23m
Waxing Gibbous, 96% of the Moon is Illuminated
Mar 25
Waxing Gibbous
Mar 27
Full
Apr 2
Last Quarter
Apr 10
New
Apr 18
First Quarter

Hourly Weather History & Observations

Time (CDT) Temp. Windchill Dew Point Humidity Pressure Visibility Wind Dir Wind Speed Gust Speed Precip Events Conditions
12:14 AM 28.4 °F 17.0 °F 23.0 °F 80% 30.09 in 2.5 mi NNW 15.0 mph - N/A   Haze
12:39 AM 28.4 °F 17.5 °F 24.8 °F 86% 30.09 in 1.5 mi NW 13.8 mph - 0.00 in Snow Light Snow
12:54 AM 28.0 °F 16.5 °F 24.1 °F 85% 30.12 in 2.0 mi NW 15.0 mph - 0.00 in   Overcast
1:27 AM 28.4 °F 15.8 °F 24.8 °F 86% 30.10 in 2.5 mi NNW 18.4 mph - 0.00 in   Overcast
1:54 AM 28.0 °F 13.6 °F 23.0 °F 81% 30.13 in 1.8 mi North 24.2 mph 28.8 mph 0.00 in   Overcast
2:54 AM 27.0 °F 13.5 °F 21.9 °F 81% 30.14 in 1.5 mi NNW 19.6 mph - 0.00 in   Overcast
3:01 AM 26.6 °F 13.1 °F 21.2 °F 80% 30.11 in 2.5 mi NNW 19.6 mph - 0.00 in   Overcast
3:08 AM 26.6 °F 13.4 °F 21.2 °F 80% 30.12 in 4.0 mi NNW 18.4 mph - 0.00 in   Overcast
3:54 AM 27.0 °F 13.5 °F 19.9 °F 75% 30.14 in 10.0 mi NNW 19.6 mph - 0.00 in   Overcast
4:54 AM 27.0 °F 13.9 °F 19.0 °F 72% 30.15 in 10.0 mi NW 18.4 mph 25.3 mph N/A   Overcast
5:54 AM 26.1 °F 12.0 °F 19.0 °F 75% 30.17 in 10.0 mi NW 20.7 mph 26.5 mph N/A   Overcast
6:54 AM 25.0 °F 10.9 °F 19.9 °F 81% 30.18 in 3.0 mi NW 19.6 mph - 0.00 in   Overcast
7:12 AM 24.8 °F 9.6 °F 19.4 °F 80% 30.15 in 2.5 mi NW 23.0 mph 28.8 mph 0.00 in   Overcast
7:44 AM 24.8 °F 10.0 °F 19.4 °F 80% 30.16 in 1.2 mi NW 21.9 mph - 0.00 in   Overcast
7:54 AM 25.0 °F 10.6 °F 21.0 °F 85% 30.20 in 1.2 mi NW 20.7 mph - 0.00 in   Overcast
8:54 AM 26.1 °F 11.6 °F 21.0 °F 81% 30.22 in 1.5 mi NNW 21.9 mph - 0.00 in   Overcast
9:14 AM 26.6 °F 13.1 °F 21.2 °F 80% 30.20 in 1.0 mi NNW 19.6 mph - 0.00 in   Overcast
9:28 AM 26.6 °F 12.0 °F 21.2 °F 80% 30.20 in 1.0 mi NNW 23.0 mph 28.8 mph 0.00 in Snow Light Snow
9:54 AM 27.0 °F 12.5 °F 21.0 °F 78% 30.23 in 1.8 mi NNW 23.0 mph - 0.00 in   Overcast
10:36 AM 28.4 °F 14.4 °F 21.2 °F 74% 30.22 in 2.0 mi NNW 23.0 mph - 0.00 in   Overcast
10:43 AM 28.4 °F 16.2 °F 21.2 °F 74% 30.22 in 1.2 mi NNW 17.3 mph - 0.00 in Snow Light Snow
10:54 AM 28.0 °F 14.3 °F 23.0 °F 81% 30.25 in 1.0 mi NNW 21.9 mph - 0.00 in Snow Light Snow
11:17 AM 28.4 °F 15.4 °F 23.0 °F 80% 30.24 in 1.5 mi NNW 19.6 mph - 0.00 in Snow Light Snow
11:54 AM 28.9 °F 15.8 °F 21.9 °F 75% 30.27 in 2.5 mi NNW 20.7 mph - 0.00 in Snow Light Snow
12:05 PM 30.2 °F 17.8 °F 23.0 °F 75% 30.24 in 3.0 mi NNW 19.6 mph - 0.00 in Snow Light Snow
12:30 PM 30.2 °F 16.8 °F 21.2 °F 69% 30.24 in 2.5 mi NNW 23.0 mph 28.8 mph 0.00 in Snow Light Snow
12:39 PM 30.2 °F 16.8 °F 23.0 °F 75% 30.24 in 5.0 mi NNW 23.0 mph 28.8 mph 0.00 in Snow Light Snow
1:54 PM 32.0 °F 20.1 °F 21.9 °F 66% 30.27 in 10.0 mi NNW 19.6 mph 24.2 mph N/A   Overcast
2:31 PM 30.2 °F 18.1 °F 19.4 °F 64% 30.24 in 10.0 mi NW 18.4 mph - N/A   Overcast
2:54 PM 30.9 °F 18.4 °F 21.0 °F 67% 30.28 in 9.0 mi NW 20.7 mph - N/A   Overcast
3:54 PM 30.9 °F 19.1 °F 21.0 °F 67% 30.28 in 9.0 mi NW 18.4 mph - 0.00 in   Overcast
4:54 PM 30.9 °F 18.4 °F 19.9 °F 64% 30.29 in 10.0 mi NNW 20.7 mph - 0.00 in   Overcast
5:54 PM 30.9 °F 19.1 °F 21.0 °F 67% 30.30 in 10.0 mi NW 18.4 mph - N/A   Overcast
6:54 PM 30.9 °F 19.1 °F 19.9 °F 64% 30.31 in 10.0 mi NW 18.4 mph - N/A   Overcast
7:54 PM 28.9 °F 18.2 °F 19.9 °F 69% 30.33 in 10.0 mi NW 13.8 mph - N/A   Overcast
8:54 PM 27.0 °F 16.1 °F 19.0 °F 72% 30.34 in 10.0 mi NW 12.7 mph - N/A   Partly Cloudy
9:54 PM 26.1 °F 16.8 °F 19.0 °F 75% 30.36 in 10.0 mi NW 9.2 mph - N/A   Overcast
10:54 PM 25.0 °F 16.3 °F 18.0 °F 75% 30.37 in 10.0 mi NW 8.1 mph - N/A   Overcast
11:54 PM 23.0 °F 12.4 °F 17.1 °F 78% 30.37 in 10.0 mi NW 10.4 mph - N/A   Clear